Regional Weather Roundup
Issued by NWS

Home | Current Version | Previous Version | Text Only | Print | Product List | Glossary Off
Versions: 1 2 3 4 5 6 7 8 9 10 11 12 13 14 15 16 17 18 19 20 21 22 23 24 25 26 27 28 29 30 31 32 33 34 35 36 37 38 39 40 41 42 43 44 45 46 47 48 49 50

000
ASUS43 KLOT 301508
RWRIL

ILLINOIS REGIONAL WEATHER ROUNDUP
NATIONAL WEATHER SERVICE CHICAGO/ROMEOVILLE IL
1000 AM CDT SAT APR 30 2016

NOTE: "FAIR" INDICATES FEW OR NO CLOUDS BELOW 12,000 FEET WITH NO
SIGNIFICANT WEATHER AND/OR OBSTRUCTIONS TO VISIBILITY.

* THESE STATIONS ARE NOT UNDER NWS QUALITY CONTROL. THEY ALSO MAY NOT
  REPORT WEATHER SUCH AS PRECIPITATION OR FOG.

ILZ001-002-007-009-015-016-024-301600-
NORTHWEST ILLINOIS

CITY           SKY/WX    TMP DP  RH WIND       PRES   REMARKS
MOLINE         LGT RAIN  49  45  86 E21       29.87F FOG
STERLING*      CLOUDY    48  46  93 E21       29.93F
SAVANNA*       LGT RAIN  48  45  88 E15G23    29.94F
$$

ILZ003-004-008-010-011-017-018-301600-
NORTH CENTRAL ILLINOIS

CITY           SKY/WX    TMP DP  RH WIND       PRES   REMARKS
ROCKFORD       CLOUDY    50  43  77 E13G20    30.03F
FREEPORT*      CLOUDY    47  43  87 E14       30.00F FOG
ROCHELLE*      DRIZZLE   48  44  85 E16G22    29.99F
DE KALB*       DRIZZLE   49  44  83 E15       30.00F
$$

ILZ005-006-012>014-019>023-301600-
NORTHEAST ILLINOIS

CITY           SKY/WX    TMP DP  RH WIND       PRES   REMARKS
CHICAGO-OHARE  CLOUDY    48  39  71 E13       30.04S
CHICAGO-MIDWAY LGT RAIN  49  40  71 E17       30.03F
AURORA         LGT RAIN  50  43  77 E18       30.00F
LANSING*       LGT RAIN  47  42  81 E9        30.04R
JOLIET*        RAIN      49  45  86 E14G21    30.01S
WAUKEGAN       CLOUDY    44  40  85 E9        30.06S
DUPAGE AIRPORT LGT RAIN  49  40  71 E14       30.01F
KANKAKEE*      RAIN      47  46  94 E15       30.00F
WHEELING       CLOUDY    47  39  74 E7        30.07S
MORRIS*        LGT RAIN  48  45  88 E16       29.98S
ROMEOVILLE*    LGT RAIN  48  42  80 E12       30.02S
NORTHERLY ISL    N/A     46  40  79 E12         N/A
NORTHERLY ISL    N/A     46  40  79 E12         N/A
$$

LMZ740>746-301600-
SOUTHERN LAKE MICHIGAN

STATION/POSITION SKY/WX   TEMP    WIND        PRES    VSBY  WAVE
                          AIR SEA DIR/SP/G                  HT/PER
                          (F)     (DEG/KT/KT) (MB)    (MI)  (FT/S)
SOUTHERN BUOY              42 40   70/ 12/ 14 1018.9          1/ 3
HARRISON CRIB              46     100/ 16/ 18   N/A
BURNHAM HARBOR             46      70/ 11/ 13   N/A
CALUMET HARBOR             47      60/  8/ 11 1017.1R
BURNS HARBOR               49      90/ 10/ 18 1017.9F
MICHIGAN CITY              48      90/ 13/ 18   N/A
ST. JOSEPH                 49 47                N/A           1
$$

ILZ025>027-034>036-040-047-049-050-058-095>099-301600-
WEST-CENTRAL ILLINOIS

CITY           SKY/WX    TMP DP  RH WIND       PRES   REMARKS
QUINCY         LGT RAIN  55  53  93 E21G28    29.73F FOG
GALESBURG*     DRIZZLE   49  48  97 E13G18    29.84S
MACOMB*        CLOUDY    51  51  99 E18G24    29.84S
JACKSONVILLE*  CLOUDY    56  54  92 E17G23    29.79F FOG
PITTSFIELD*    LGT RAIN  57  56  97 E10       29.78F
$$

ILZ028>032-037-038-041>044-048-051>054-059>061-301600-
CENTRAL ILLINOIS

CITY           SKY/WX    TMP DP  RH WIND       PRES   REMARKS
PONTIAC        LGT RAIN  51  50  97 E21G26    29.94F
BLOOMINGTON    LGT RAIN  51  51 100 E21       29.90F FOG
DECATUR        LGT RAIN  55  52  89 E22G30    29.86F FOG
PEORIA         LGT RAIN  51  49  92 E15       29.86F FOG
LACON*         LGT RAIN  49  48  94 E16G22    29.90F
LINCOLN*       RAIN      55  54  96 E20G25    29.86S
SPRINGFIELD    LGT RAIN  57  56  96 E20G28    29.82F FOG
TAYLORVILLE    LGT RAIN  55  55 100 E17       29.81F
$$

ILZ033-039-045-046-055>057-062-063-301600-
EAST-CENTRAL ILLINOIS

CITY           SKY/WX    TMP DP  RH WIND       PRES   REMARKS
CHAMPAIGN      LGT RAIN  52  51  97 E21G31    29.90F FOG
RANTOUL*       LGT RAIN  52  51  96 E15       29.93F
MATTOON        LGT RAIN  55  53  93 E15G23    29.88F FOG
PARIS*         LGT RAIN  54  53  97 E10G16    29.94F
$$

ILZ079-100>102-301600-
SOUTHWEST ILLINOIS

CITY           SKY/WX    TMP DP  RH WIND       PRES   REMARKS
ALTON          RAIN      59  57  94 SE9       29.78R
BELLEVILLE     LGT RAIN  61  61 100 SE13      29.77R
CAHOKIA*       RAIN      63  59  87 S8        29.77F FOG
SPARTA*        RAIN      60  59  97 SE13G22   29.79F
$$

ILZ064>066-069>071-074>076-080>082-084>086-088>090-092>094-301600-
SOUTH-CENTRAL ILLINOIS

CITY           SKY/WX    TMP DP  RH WIND       PRES   REMARKS
CARBONDALE     LGT RAIN  62  60  93 SE12      29.80F
CAIRO*         CLOUDY    64  62  96 W7        29.83R
EFFINGHAM*     LGT RAIN  57  57 100 E16       29.85F
MARION         LGT RAIN  63  61  94 SE12      29.83F
MT. VERNON     CLOUDY    59  54  82 E6        29.85F
CENTRALIA*     LGT RAIN  59  59  99 E9G17     29.81F
SALEM*         LGT RAIN  60  57  92 SE7G16    29.83S
METROPOLIS*    CLOUDY    64  64 100 SE5       29.84F
$$

ILZ067-068-072-073-078-083-087-091-301600-
SOUTHEAST ILLINOIS

CITY           SKY/WX    TMP DP  RH WIND       PRES   REMARKS
LAWRENCEVILLE  LGT RAIN  58  58 100 E10       29.92S FOG
FLORA*         LGT RAIN  59  57  94 E17       29.86F
FAIRFIELD*     LGT RAIN  58  58  99 E10       29.85F
HARRISBURG*    DRIZZLE   60  60  98 E9        29.86F
ROBINSON*      RAIN      56  55  97 E15       29.91F
CARMI*         LGT RAIN  59  59  99 E12       29.88F
$$

ABBREVIATIONS USED IN REMARKS
   TC - TEMPERATURE IN CELSIUS
  WCI - WIND CHILL INDEX
   HX - HEAT INDEX
  VSB - VISIBILITY
$$




USA.gov is the U.S. government's official web portal to all federal, state and local government web resources and services.